DW6794 Weather Reports


Display with metric or nautical units.
time (UTC)temp
F
wind
direction
speed
MPH
gust
MPH
rain 1hr
in
rain 24hr
in
rain mn
in
humidity
%
barometer
mb
20140730065352 52 93 0.0 0.0 0.00 0.00 0.00 78 1015.1
20140730064352 52 93 0.0 0.0 0.00 0.00 0.00 78 1015.1
20140730063353 52 92 0.0 0.0 0.00 0.00 0.00 78 1015.0
20140730062353 53 92 0.0 0.0 0.00 0.00 0.00 78 1015.0
20140730061353 53 93 0.0 0.0 0.00 0.00 0.00 78 1015.0
20140730060352 53 93 0.0 0.0 0.00 0.00 0.00 79 1015.0
20140730055352 53 93 0.0 0.0 0.00 0.00 0.00 79 1015.0
20140730054352 53 93 0.0 0.0 0.00 0.00 0.00 78 1015.0
20140730053352 54 93 0.0 0.0 0.00 0.00 0.00 78 1015.1
20140730052352 54 93 0.0 0.0 0.00 0.00 0.00 77 1015.1
20140730051353 54 93 0.0 0.0 0.00 0.00 0.00 77 1015.0
20140730050353 54 93 0.0 0.0 0.00 0.00 0.00 77 1015.0
20140730045353 55 96 0.0 0.0 0.00 0.00 0.00 76 1015.0
20140730044352 55 165 0.0 0.0 0.00 0.00 0.00 75 1015.1
20140730043353 56 165 0.0 0.0 0.00 0.00 0.00 73 1015.0
20140730042353 57 165 0.0 0.0 0.00 0.00 0.00 73 1015.0
20140730041352 57 165 0.0 0.0 0.00 0.00 0.00 73 1015.0
20140730040353 57 165 0.0 0.0 0.00 0.00 0.00 72 1015.0
20140730035352 58 165 0.0 0.0 0.00 0.00 0.00 72 1015.1
20140730034353 58 165 0.0 0.0 0.00 0.00 0.00 72 1015.1
20140730033353 58 165 0.0 0.0 0.00 0.00 0.00 72 1015.1
20140730032353 58 165 0.0 0.0 0.00 0.00 0.00 71 1015.0
20140730031353 59 165 0.0 0.0 0.00 0.00 0.00 71 1014.9
20140730030353 59 165 0.0 0.0 0.00 0.00 0.00 71 1014.9
20140730025353 59 165 0.0 0.0 0.00 0.00 0.00 68 1014.9
20140730024353 59 165 0.0 0.0 0.00 0.00 0.00 68 1014.9
20140730023353 59 165 0.0 0.0 0.00 0.00 0.00 68 1014.8
20140730022353 60 165 0.0 0.0 0.00 0.00 0.00 69 1014.7
20140730021353 60 165 0.0 0.0 0.00 0.00 0.00 69 1014.5
20140730020353 61 165 0.0 0.0 0.00 0.00 0.00 66 1014.4
20140730015353 61 165 0.0 0.0 0.00 0.00 0.00 65 1014.3
20140730014353 62 165 0.0 0.0 0.00 0.00 0.00 62 1014.3
20140730013353 63 165 0.0 0.0 0.00 0.00 0.00 62 1014.1
20140730012353 64 165 0.0 0.0 0.00 0.00 0.00 60 1014.0
20140730011353 65 165 0.0 0.0 0.00 0.00 0.00 59 1013.8
20140730010353 65 165 0.0 0.0 0.00 0.00 0.00 59 1013.6
20140730005354 66 165 0.0 0.0 0.00 0.00 0.00 58 1013.8
20140730004353 67 165 0.0 0.0 0.00 0.00 0.00 57 1013.5
20140730003353 68 167 0.0 0.0 0.00 0.00 0.00 56 1013.3
20140730002353 69 178 0.0 0.0 0.00 0.00 0.00 56 1013.1
20140730001353 69 178 0.0 0.0 0.00 0.00 0.00 56 1013.0
20140730000354 70 178 0.0 0.0 0.00 0.00 0.00 55 1012.9
20140729235353 70 178 0.0 0.0 0.00 0.00 0.00 55 1013.1
20140729234353 71 178 0.0 3.0 0.00 0.00 0.00 55 1012.8
20140729233353 72 263 0.0 3.0 0.00 0.00 0.00 54 1012.6
20140729232354 72 259 0.0 6.0 0.00 0.00 0.00 54 1012.6
20140729231354 73 285 0.0 5.0 0.00 0.00 0.00 54 1012.5
20140729230354 74 215 1.0 6.0 0.00 0.00 0.00 54 1012.4
20140729225354 74 286 1.0 10.0 0.00 0.00 0.00 54 1012.5
20140729224354 74 211 1.0 6.0 0.00 0.00 0.00 53 1012.2
20140729223354 74 264 2.0 12.0 0.00 0.00 0.00 52 1012.1
20140729222354 75 252 5.0 10.0 0.00 0.00 0.00 53 1012.0
20140729221354 74 267 0.0 6.0 0.00 0.00 0.00 53 1012.1
20140729220354 75 236 1.0 5.0 0.00 0.00 0.00 54 1012.0
20140729215354 74 260 1.0 15.0 0.00 0.00 0.00 54 1012.1
20140729214354 75 257 2.0 10.0 0.00 0.00 0.00 54 1011.9
20140729213355 75 258 6.0 12.0 0.00 0.00 0.00 54 1011.9
20140729212354 75 267 2.0 8.0 0.00 0.00 0.00 55 1011.8
20140729211354 74 329 2.0 7.0 0.00 0.00 0.00 56 1011.9
20140729210354 74 244 2.0 12.0 0.00 0.00 0.00 55 1011.9
20140729205354 75 250 7.0 13.0 0.00 0.00 0.00 54 1011.7
20140729204354 75 260 6.0 14.0 0.00 0.00 0.00 53 1011.5
20140729203354 75 254 3.0 8.0 0.00 0.00 0.00 56 1011.5
20140729202354 75 250 1.0 9.0 0.00 0.00 0.00 57 1011.5
20140729201354 75 236 1.0 9.0 0.00 0.00 0.00 58 1011.5
20140729200354 75 259 4.0 12.0 0.00 0.00 0.00 57 1011.5
20140729195354 75 245 1.0 12.0 0.00 0.00 0.00 58 1011.3
20140729194355 75 247 5.0 12.0 0.00 0.00 0.00 57 1011.3
20140729193354 75 251 3.0 12.0 0.00 0.00 0.00 59 1011.3
20140729192355 75 222 1.0 7.0 0.00 0.00 0.00 59 1011.3
20140729191354 75 253 12.0 16.0 0.00 0.00 0.00 57 1011.3
20140729190355 74 324 1.0 12.0 0.00 0.00 0.00 60 1011.4
20140729185354 74 280 1.0 9.0 0.00 0.00 0.00 62 1011.4
20140729184354 74 251 1.0 7.0 0.00 0.00 0.00 62 1011.5
20140729183355 74 20 1.0 3.0 0.00 0.00 0.00 63 1011.6
20140729182355 73 263 2.0 14.0 0.00 0.00 0.00 63 1011.8
20140729181355 73 265 7.0 13.0 0.00 0.00 0.00 61 1011.9
20140729180355 73 254 1.0 7.0 0.00 0.00 0.00 62 1011.9
20140729175356 73 247 4.0 14.0 0.00 0.00 0.00 64 1011.8
20140729174354 73 247 3.0 13.0 0.00 0.00 0.00 64 1011.8
20140729173355 73 252 5.0 12.0 0.00 0.00 0.00 64 1011.9
20140729172354 72 305 1.0 10.0 0.00 0.00 0.00 67 1012.1
20140729171354 71 236 2.0 6.0 0.00 0.00 0.00 66 1012.3
20140729170355 72 250 3.0 7.0 0.00 0.00 0.00 66 1012.4
20140729165355 73 205 2.0 5.0 0.00 0.00 0.00 68 1012.3
20140729164355 72 272 2.0 8.0 0.00 0.00 0.00 69 1012.3
20140729163354 71 292 1.0 5.0 0.00 0.00 0.00 70 1012.4
20140729162355 70 246 1.0 6.0 0.00 0.00 0.00 72 1012.5
20140729161355 70 267 1.0 5.0 0.00 0.00 0.00 73 1012.4
20140729160355 70 236 0.0 2.0 0.00 0.00 0.00 73 1012.4
20140729155356 70 235 2.0 6.0 0.00 0.00 0.00 74 1012.5
20140729154355 69 134 0.0 3.0 0.00 0.00 0.00 74 1012.5
20140729153355 69 242 2.0 6.0 0.00 0.00 0.00 75 1012.6
20140729152355 69 260 2.0 5.0 0.00 0.00 0.00 75 1012.5
20140729151355 69 256 1.0 5.0 0.00 0.00 0.00 76 1012.5
20140729150355 70 254 2.0 5.0 0.00 0.00 0.00 76 1012.4
20140729145355 69 311 1.0 3.0 0.00 0.00 0.00 77 1012.3
20140729144355 69 256 0.0 5.0 0.00 0.01 0.00 79 1012.3
20140729143355 69 248 3.0 5.0 0.00 0.01 0.00 79 1012.2
20140729142356 69 71 2.0 5.0 0.00 0.01 0.00 79 1012.2
20140729141355 69 64 0.0 5.0 0.00 0.01 0.00 80 1012.2
20140729140356 68 124 0.0 0.0 0.00 0.01 0.00 81 1012.2
20140729135355 68 124 0.0 0.0 0.00 0.01 0.00 80 1012.0
20140729134356 68 283 0.0 0.0 0.00 0.01 0.00 81 1012.1
20140729133356 67 264 0.0 0.0 0.00 0.01 0.00 83 1012.0
20140729132356 66 264 0.0 0.0 0.00 0.01 0.00 83 1012.1
20140729131356 65 259 0.0 0.0 0.00 0.01 0.00 84 1012.0
20140729130356 64 259 0.0 0.0 0.00 0.01 0.00 85 1012.2
20140729125356 64 259 0.0 0.0 0.00 0.01 0.00 85 1012.0
20140729124355 63 259 0.0 0.0 0.00 0.01 0.00 85 1012.1
20140729123356 63 259 0.0 0.0 0.00 0.01 0.00 86 1012.1
20140729122356 62 259 0.0 0.0 0.00 0.01 0.00 86 1012.0
20140729121356 61 259 0.0 0.0 0.00 0.01 0.00 85 1012.1
20140729120356 60 259 0.0 0.0 0.00 0.01 0.00 85 1012.1
20140729115356 60 259 0.0 0.0 0.00 0.01 0.00 85 1012.0
20140729114356 59 259 0.0 0.0 0.00 0.01 0.00 85 1012.0
20140729113355 58 263 0.0 0.0 0.00 0.01 0.00 85 1012.0
20140729112356 57 263 0.0 0.0 0.00 0.01 0.00 85 1011.9
20140729111356 57 263 0.0 0.0 0.00 0.01 0.00 84 1011.7
20140729110356 57 263 0.0 0.0 0.00 0.01 0.00 84 1011.7
20140729105356 57 263 0.0 0.0 0.00 0.01 0.00 84 1011.5
20140729104356 57 263 0.0 0.0 0.00 0.01 0.00 84 1011.5
20140729103356 57 263 0.0 0.0 0.00 0.01 0.00 84 1011.4
20140729102356 57 263 0.0 0.0 0.00 0.01 0.00 84 1011.4
20140729101356 57 263 0.0 0.0 0.00 0.01 0.00 84 1011.4
20140729100356 57 263 0.0 0.0 0.00 0.01 0.00 84 1011.4
20140729095356 57 263 0.0 0.0 0.00 0.01 0.00 84 1011.3
20140729094356 57 263 0.0 0.0 0.00 0.01 0.00 84 1011.1
20140729093356 57 263 0.0 0.0 0.00 0.01 0.00 83 1011.0
20140729092356 57 263 0.0 0.0 0.00 0.01 0.00 83 1010.9
20140729091356 57 263 0.0 0.0 0.00 0.01 0.00 83 1010.8
20140729090357 57 263 0.0 0.0 0.00 0.01 0.00 83 1010.7
20140729085357 57 263 0.0 0.0 0.00 0.01 0.00 83 1010.5
20140729084356 58 263 0.0 0.0 0.00 0.01 0.00 83 1010.6
20140729083356 58 263 0.0 0.0 0.00 0.01 0.00 83 1010.5
20140729082357 58 263 0.0 0.0 0.00 0.01 0.00 83 1010.6
20140729081356 58 263 0.0 0.0 0.00 0.01 0.00 82 1010.6
20140729080356 59 263 0.0 0.0 0.00 0.01 0.00 82 1010.5
20140729075357 59 263 0.0 0.0 0.00 0.01 0.00 82 1010.6
20140729074357 59 263 0.0 0.0 0.00 0.01 0.00 82 1010.7
20140729073357 59 263 0.0 0.0 0.00 0.01 0.00 82 1010.8
20140729072357 59 263 0.0 0.0 0.00 0.01 0.00 82 1010.8
20140729071356 59 263 0.0 0.0 0.00 0.01 0.00 81 1010.9
20140729070357 59 263 0.0 0.0 0.00 0.01 0.00 81 1010.9